This is the latest recevied weather packets stored in our database for station/object WP4NYS-13. If no packets are shown the sender has not sent any weather packets the latest 10 day(s).
| Time | Temp. | Humidity | Pressure | Rain* | Wind** | Luminosity | Snow |
|---|---|---|---|---|---|---|---|
| 1777905895 | 25° C | 42% | 1019 hPa | 0 mm | - | - | - |
| 1777905591 | 24.44° C | 42% | 1019.3 hPa | 0 mm | - | - | - |
| 1777905288 | 24.44° C | 42% | 1019.1 hPa | 0 mm | - | - | - |
| 1777904985 | 24.44° C | 43% | 1019 hPa | 0 mm | - | - | - |
| 1777904683 | 23.89° C | 42% | 1019.3 hPa | 0 mm | - | - | - |
| 1777904380 | 23.33° C | 43% | 1019.3 hPa | 0 mm | - | - | - |
| 1777904076 | 23.33° C | 43% | 1019.1 hPa | 0 mm | - | - | - |
| 1777903773 | 22.78° C | 46% | 1019.2 hPa | 0 mm | - | - | - |
| 1777903470 | 23.33° C | 46% | 1019.3 hPa | 0 mm | - | - | - |
| 1777903166 | 22.78° C | 47% | 1019.2 hPa | 0 mm | - | - | - |
| 1777902862 | 22.78° C | 48% | 1019.3 hPa | 0 mm | - | - | - |
| 1777902560 | 22.78° C | 49% | 1019.3 hPa | 0 mm | - | - | - |
| 1777902257 | 22.22° C | 51% | 1019.3 hPa | 0 mm | - | - | - |
| 1777901954 | 22.22° C | 51% | 1019 hPa | 0 mm | - | - | - |
| 1777901652 | 21.67° C | 53% | 1019.4 hPa | 0 mm | - | - | - |
| 1777901349 | 21.67° C | 53% | 1019.3 hPa | 0 mm | - | - | - |
| 1777901047 | 21.11° C | 55% | 1019.2 hPa | 0 mm | - | - | - |
| 1777900744 | 21.11° C | 56% | 1019.1 hPa | 0 mm | - | - | - |
| 1777900440 | 21.11° C | 58% | 1019.1 hPa | 0 mm | - | - | - |
| 1777900138 | 20.56° C | 60% | 1019 hPa | 0 mm | - | - | - |
| 1777899834 | 20.56° C | 61% | 1019 hPa | 0 mm | - | - | - |
| 1777899531 | 20° C | 63% | 1018.9 hPa | 0 mm | - | - | - |
| 1777899229 | 20° C | 63% | 1019.1 hPa | 0 mm | - | - | - |
| 1777898927 | 19.44° C | 66% | 1019.1 hPa | 0 mm | - | - | - |
| 1777898624 | 19.44° C | 69% | 1019.1 hPa | 0 mm | - | - | - |
* Rain latest hour (hover to see other rain measurements)
** Current wind speed in m/s (hover to see current wind gust speed)